When you browse on this site, cookies collect data to enhance your experience and personalize the content and advertising you see.
Visit our Privacy Policy to learn more. By continuing to use the site, you agree to this use of cookies and data.
  • In Sweden
  • List of Countries
  • For 7 days
  • Water Temperature
  • Satellite Maps
  • Weather Map
  • Weather Widgets
  • user-avatar
    Login

    Hourly Weather Omagh

    Today, 26 March, Tuesday

    Time Temperature Precipitation Wind Pressure Humidity
    00:00 +4°C° 0 mm 1 mps 769 mmHg 94%
    01:00 +4°C° 0 mm 1 mps 769 mmHg 95%
    02:00 +4°C° 0 mm 1 mps 769 mmHg 95%
    03:00 +3°C° 0 mm 1 mps 769 mmHg 96%
    04:00 +3°C° 0 mm 1 mps 769 mmHg 96%
    05:00 +3°C° 0 mm 1 mps 769 mmHg 97%
    06:00 +3°C° 0 mm 1 mps 768 mmHg 97%
    07:00 +4°C° 0 mm 1 mps 768 mmHg 93%
    08:00 +5°C° 0 mm 2 mps 769 mmHg 89%
    09:00 +7°C° 0 mm 2 mps 769 mmHg 84%
    10:00 +8°C° 0 mm 3 mps 768 mmHg 81%
    11:00 +9°C° 0 mm 3 mps 768 mmHg 77%
    12:00 +10°C° 0 mm 4 mps 768 mmHg 74%
    13:00 +10°C° 0 mm 4 mps 768 mmHg 75%
    14:00 +10°C° 0 mm 3 mps 768 mmHg 76%
    15:00 +10°C° 0 mm 3 mps 768 mmHg 76%
    16:00 +9°C° 0 mm 3 mps 768 mmHg 79%
    17:00 +9°C° 0 mm 2 mps 768 mmHg 82%
    18:00 +8°C° 0 mm 2 mps 768 mmHg 85%
    19:00 +7°C° 0 mm 2 mps 768 mmHg 88%
    20:00 +7°C° 0 mm 1 mps 768 mmHg 92%
    21:00 +6°C° 0 mm 1 mps 769 mmHg 96%
    22:00 +5°C° 0 mm 1 mps 769 mmHg 96%
    23:00 +5°C° 0 mm 1 mps 769 mmHg 97%

    Tomorrow, 27 March, Wednesday

    Time Temperature Precipitation Wind Pressure Humidity
    00:00 +5°C° 0 mm 1 mps 769 mmHg 97%
    01:00 +5°C° 0 mm 1 mps 769 mmHg 97%
    02:00 +3°C° 0 mm 2 mps 768 mmHg 97%
    03:00 +3°C° 0 mm 2 mps 768 mmHg 98%
    04:00 +4°C° 0 mm 1 mps 768 mmHg 98%
    05:00 +4°C° 0 mm 1 mps 768 mmHg 98%
    06:00 +4°C° 0 mm 1 mps 768 mmHg 98%
    07:00 +5°C° 0 mm 2 mps 768 mmHg 95%
    08:00 +6°C° 0 mm 2 mps 769 mmHg 91%
    09:00 +8°C° 0 mm 3 mps 769 mmHg 87%
    10:00 +8°C° 0 mm 3 mps 769 mmHg 85%
    11:00 +9°C° 0 mm 3 mps 769 mmHg 82%
    12:00 +9°C° 0 mm 3 mps 770 mmHg 79%
    13:00 +9°C° 0 mm 3 mps 770 mmHg 78%
    14:00 +10°C° 0 mm 3 mps 770 mmHg 77%
    15:00 +10°C° 0 mm 3 mps 770 mmHg 76%
    16:00 +10°C° 0 mm 3 mps 770 mmHg 78%
    17:00 +9°C° 0 mm 3 mps 770 mmHg 81%
    18:00 +9°C° 0 mm 2 mps 770 mmHg 83%
    19:00 +8°C° 0 mm 2 mps 770 mmHg 84%
    20:00 +8°C° 0 mm 2 mps 770 mmHg 86%
    21:00 +7°C° 0 mm 2 mps 771 mmHg 87%
    22:00 +6°C° 0 mm 2 mps 771 mmHg 91%
    23:00 +5°C° 0 mm 2 mps 771 mmHg 94%

    Day after tomorrow, 28 March, Thursday

    Time Temperature Precipitation Wind Pressure Humidity
    00:00 +5°C° 0 mm 1 mps 771 mmHg 97%
    01:00 +5°C° 0 mm 1 mps 771 mmHg 97%
    02:00 +4°C° 0 mm 1 mps 771 mmHg 97%
    03:00 +4°C° 0 mm 1 mps 771 mmHg 98%
    04:00 +4°C° 0 mm 1 mps 771 mmHg 98%
    05:00 +4°C° 0 mm 1 mps 771 mmHg 98%
    06:00 +3°C° 0 mm 1 mps 771 mmHg 98%
    07:00 +5°C° 0 mm 1 mps 771 mmHg 95%
    08:00 +7°C° 0 mm 1 mps 771 mmHg 92%
    09:00 +8°C° 0 mm 1 mps 771 mmHg 89%
    10:00 +9°C° 0 mm 2 mps 771 mmHg 83%
    11:00 +10°C° 0 mm 2 mps 771 mmHg 77%
    12:00 +13°C° 0 mm 2 mps 771 mmHg 71%
    13:00 +13°C° 0 mm 2 mps 771 mmHg 69%
    14:00 +14°C° 0 mm 2 mps 770 mmHg 66%
    15:00 +13°C° 0 mm 3 mps 770 mmHg 64%
    16:00 +14°C° 0 mm 2 mps 769 mmHg 70%
    17:00 +13°C° 0 mm 2 mps 769 mmHg 75%
    18:00 +12°C° 0 mm 2 mps 768 mmHg 80%
    19:00 +10°C° 0 mm 2 mps 769 mmHg 85%
    20:00 +8°C° 0 mm 2 mps 769 mmHg 90%
    21:00 +7°C° 0 mm 2 mps 769 mmHg 95%
    22:00 +6°C° 0 mm 2 mps 768 mmHg 95%
    23:00 +6°C° 0 mm 2 mps 768 mmHg 95%

    29 March, Friday

    Time Temperature Precipitation Wind Pressure Humidity
    00:00 +5°C° 0 mm 2 mps 768 mmHg 95%
    01:00 +5°C° 0 mm 2 mps 767 mmHg 96%
    02:00 +5°C° 0 mm 2 mps 767 mmHg 96%
    03:00 +4°C° 0 mm 2 mps 766 mmHg 97%
    04:00 +4°C° 0 mm 2 mps 766 mmHg 96%
    05:00 +4°C° 0 mm 2 mps 766 mmHg 96%
    06:00 +3°C° 0 mm 2 mps 766 mmHg 95%
    07:00 +5°C° 0 mm 2 mps 766 mmHg 88%
    08:00 +6°C° 0 mm 2 mps 766 mmHg 80%
    09:00 +7°C° 0 mm 2 mps 766 mmHg 73%
    10:00 +9°C° 0 mm 3 mps 766 mmHg 69%
    11:00 +11°C° 0 mm 3 mps 766 mmHg 66%
    12:00 +13°C° 0 mm 3 mps 765 mmHg 62%
    13:00 +13°C° 0 mm 3 mps 765 mmHg 62%
    14:00 +14°C° 0 mm 3 mps 764 mmHg 62%
    15:00 +14°C° 0 mm 3 mps 764 mmHg 62%
    16:00 +14°C° 0 mm 2 mps 764 mmHg 68%
    17:00 +14°C° 0 mm 2 mps 764 mmHg 74%
    18:00 +13°C° 0 mm 1 mps 764 mmHg 79%
    19:00 +12°C° 0 mm 1 mps 764 mmHg 83%
    20:00 +11°C° 0 mm 1 mps 764 mmHg 86%
    21:00 +10°C° 0 mm 1 mps 764 mmHg 89%
    22:00 +8°C° 0 mm 0 mps 764 mmHg 91%
    23:00 +7°C° 0 mm 0 mps 764 mmHg 92%

    30 March, Saturday

    Time Temperature Precipitation Wind Pressure Humidity
    00:00 +6°C° 0 mm 0 mps 764 mmHg 94%
    01:00 +5°C° 0 mm 0 mps 764 mmHg 94%
    02:00 +5°C° 0 mm 0 mps 763 mmHg 95%
    03:00 +5°C° 0 mm 0 mps 763 mmHg 95%
    04:00 +4°C° 0 mm 0 mps 763 mmHg 95%
    05:00 +4°C° 0 mm 0 mps 763 mmHg 95%
    06:00 +5°C° 0 mm 1 mps 763 mmHg 95%
    07:00 +7°C° 0 mm 1 mps 764 mmHg 93%
    08:00 +7°C° 0 mm 2 mps 764 mmHg 90%
    09:00 +8°C° 0 mm 2 mps 764 mmHg 87%
    10:00 +8°C° 0 mm 3 mps 765 mmHg 85%
    11:00 +8°C° 0 mm 3 mps 765 mmHg 83%
    12:00 +7°C° 0 mm 4 mps 765 mmHg 82%
    13:00 +7°C° 0 mm 4 mps 765 mmHg 77%
    14:00 +7°C° 0 mm 4 mps 765 mmHg 72%
    15:00 +7°C° 0 mm 5 mps 766 mmHg 67%
    16:00 +6°C° 0 mm 4 mps 766 mmHg 67%
    17:00 +6°C° 0 mm 4 mps 766 mmHg 67%
    18:00 +5°C° 0 mm 4 mps 766 mmHg 67%
    19:00 +4°C° 0 mm 4 mps 767 mmHg 71%
    20:00 +3°C° 0 mm 3 mps 767 mmHg 74%
    21:00 +2°C° 0 mm 3 mps 768 mmHg 78%
    22:00 +1°C° 0 mm 3 mps 768 mmHg 79%
    23:00 +1°C° 0 mm 3 mps 768 mmHg 80%

    31 March, Sunday

    Time Temperature Precipitation Wind Pressure Humidity
    00:00 +2°C° 0 mm 2 mps 768 mmHg 81%
    01:00 +2°C° 0 mm 2 mps 768 mmHg 82%
    02:00 +1°C° 0 mm 2 mps 768 mmHg 82%
    03:00 +1°C° 0 mm 2 mps 768 mmHg 82%
    04:00 0°C° 0 mm 3 mps 769 mmHg 82%
    05:00 0°C° 0 mm 3 mps 769 mmHg 83%
    06:00 +1°C° 0 mm 3 mps 769 mmHg 83%
    07:00 +1°C° 0 mm 3 mps 770 mmHg 78%
    08:00 +1°C° 0 mm 4 mps 770 mmHg 73%
    09:00 +3°C° 0 mm 4 mps 770 mmHg 68%
    10:00 +4°C° 0 mm 4 mps 770 mmHg 65%
    11:00 +5°C° 0 mm 4 mps 770 mmHg 62%
    12:00 +6°C° 0 mm 4 mps 770 mmHg 59%
    13:00 +6°C° 0 mm 4 mps 770 mmHg 58%
    14:00 +7°C° 0 mm 4 mps 770 mmHg 58%
    15:00 +8°C° 0 mm 3 mps 769 mmHg 58%
    16:00 +7°C° 0 mm 3 mps 769 mmHg 62%
    17:00 +7°C° 0 mm 3 mps 769 mmHg 65%
    18:00 +6°C° 0 mm 2 mps 769 mmHg 69%
    19:00 +4°C° 0 mm 2 mps 769 mmHg 76%
    20:00 +2°C° 0 mm 2 mps 769 mmHg 82%
    21:00 +2°C° 0 mm 1 mps 769 mmHg 89%
    22:00 +1°C° 0 mm 1 mps 769 mmHg 90%
    23:00 +1°C° 0 mm 1 mps 768 mmHg 92%
    Show more